[Date Prev][Date Next][Thread Prev][Thread Next] - [Date Index][Thread Index][Author Index]
2 Line ISS Keps 12-20
- Subject: [sarex] 2 Line ISS Keps 12-20
- From: "Dave Larsen PhD" <doc@xxxxxxxxxxx>
- Date: Tue, 20 Jan 2004 00:16:34 -0800
ISS
1 25544U 98067A 04020.13204975 .00023309 00000-0 22720-3 0 430
2 25544 51.6300 4.3372 0008046 70.2531 27.1024 15.66084826294931
----
Via the sarex mailing list at AMSAT.ORG courtesy of AMSAT-NA.
To unsubscribe, send "unsubscribe sarex" to Majordomo@amsat.org
AMSAT Home